Content
SEND FEEDBACK

Daily
Averages
Monthly
Summary
United States of America

COLFAX, WASHINGTON


Home > North America > United States > Washington
Elevation: 2185 feet     Latitude: 46 53N     Longitude: 117 22W

WEATHER
 
SELECT A DAY
Number of Records: 190,226;   Date Range: 1/1/95 - 9/30/14
 
SHARE

PRINT THIS DATA

[ ← Previous Day ]
WEATHER ALMANAC - JANUARY 3, 2013
[ Next Day → ]
[ °C ]   °F
Weather ElementAverageHighLow
Temperature15.6 °F24.1 °F (11:53 am)7 °F (8:53 pm)
Dewpoint10.1 °F16 °F (11:53 am)3 °F (8:53 pm)
Humidity79.2 %88 % (1:53 am)69 % (1:53 pm)
Barometer30.45 in30.51 in (1:53 am)30.39 in (2:53 pm)
Wind Speed5.7 mph12.7 mph (10:53 am)
Weather ElementAverage
Visibility10 mi
Wind DirectionENE (81.4 °)

Weather ElementTotal
Precipitation---
Heating Degree Days49.5 (Base 65)
Averaged from 22 records on January 3, 2013
WEATHER CONDITIONS BREAKOUT
WIND DIRECTION BREAKOUT
WEATHER BY HOUR - JANUARY 3, 2013
[ °C ]   °F
Local TimeTemperatureDewpointHumidityBarometerVisibilityWind DirectionWind SpeedGust SpeedPrecipitationEventsConditions
1:53 AM12.0 °F9.0 °F88 %30.51 in10.0 miESE (120°)5.8 mphClear
2:53 AM16.0 °F10.9 °F81 %30.49 in10.0 miESE (110°)6.9 mphClear
3:53 AM16.0 °F10.0 °F77 %30.49 in10.0 miSSE (150°)8.1 mphClear
4:53 AM14.0 °F9.0 °F80 %30.49 in10.0 miSE (140°)4.6 mphClear
5:53 AM10.9 °F8.1 °F88 %30.50 in10.0 miSE (130°)5.8 mphClear
6:53 AM12.9 °F10.0 °F88 %30.49 in10.0 miESE (110°)8.1 mphClear
7:53 AM16.0 °F10.0 °F77 %30.49 in10.0 miSE (140°)9.2 mphClear
8:53 AM18.0 °F12.0 °F78 %30.48 in10.0 miEast (90°)11.5 mphClear
9:53 AM19.9 °F14.0 °F78 %30.48 in10.0 miEast (100°)11.5 mphClear
10:53 AM23.0 °F15.1 °F72 %30.44 in10.0 miEast (100°)12.7 mphClear
11:53 AM24.1 °F16.0 °F71 %30.42 in10.0 miEast (100°)10.4 mphClear
12:53 PM24.1 °F16.0 °F71 %30.40 in10.0 miESE (120°)9.2 mphClear
1:53 PM24.1 °F15.1 °F69 %30.40 in10.0 miSE (130°)10.4 mphClear
2:53 PM21.0 °F14.0 °F74 %30.39 in10.0 miSE (140°)3.5 mphClear
4:53 PM17.1 °F10.9 °F77 %30.40 in10.0 miCalmClear
5:53 PM10.0 °F6.1 °F84 %30.42 in10.0 miCalmClear
6:53 PM10.9 °F6.1 °F81 %30.44 in10.0 miCalmClear
7:53 PM9.0 °F3.9 °F80 %30.44 in10.0 miCalmClear
8:53 PM7.0 °F3.0 °F84 %30.43 in9.0 miCalmClear
9:53 PM12.0 °F7.0 °F80 %30.43 in10.0 miCalmOvercast
10:53 PM12.0 °F8.1 °F84 %30.44 in10.0 miCalmMostly Cloudy
11:53 PM12.9 °F8.1 °F81 %30.43 in10.0 miESE (110°)6.9 mphClear
Hourly data recorded from KPUW, located miles away from Colfax, Washington







STORIES FROM OUR PARTNERS